STARLINK-34714

Last updated on Wed Aug 27 2025 00:02:05 GMT+0000 (Coordinated Universal Time)

1 64939U 25158H 25237.91670139 .00087711 00000+0 22270-2 0 9995 2 64939 97.6032 100.5841 0001986 97.5760 261.5024 15.39321664 5754
UTC large
Height (km)
Speed (km/s)
/
Latitude / Longitude
Inclination (degrees)
Orbital Period (minutes)
Azimuth
Elevation
Range (km)
Doppler Factor

Next 0 passes for location: London (51.5072 / 0.1276)

Sorry there are no passes over London.